Location: Finkenbach
(49.5340°N, 8.9188°E)
Time: 21:32:47
(UTC+00:00)

Cosmos 1802 Rocket - Pass Details

Date: 17 June 2025
Orbit: 954 x 1010 km, 82.9° (Epoch: 16 July)

Event Time Altitude Azimuth Distance (km) Brightness Sun altitude
Rises 20:15:30 0° 352° (N) 3,757 8.1 -5.8°
Reaches altitude 10° 20:18:05 10° 355° (N) 2,802 7.3 -6.0°
Maximum altitude 20:24:29 63° 77° (ENE) 1,119 4.2 -6.7°
Drops below altitude 10° 20:30:48 10° 158° (SSE) 2,765 5.8 -7.4°
Enters shadow 20:31:30 - 159° (SSE) 3,022 6.0 -7.5°
